Dewpoint
1 3 2 2 3 3 4 4 5 3 -0 -4 -3 -3 -4 -5 -2 1 3 3 3 2 2 1 0 -0 0 0 0 1 1 1 1 1 1 1 1 2 2 2 2 2 2 1
-0 1 1 2 1 3 2 2 1 1 1 -2 -5 -4 -4 -4 1 2 3 3 2 2 1 0 -0 -0 -0 0 1 1 1 1 1 1 1 1 1 1 1 1 1 1 0 -0
-1 1 -0 1 0 1 2 1 1 2 -0 -3 -3 -4 -3 -1 0 1 2 3 2 2 1 0 -0 -0 -0 0 0 1 1 1 1 0 0 1 1 1 0 -0 -1 -1 -1 -1
-0 -0 1 -2 -2 -1 -1 -1 0 -0 -1 -2 -2 -4 -5 -1 -0 2 3 3 2 1 1 -0 -0 -0 0 0 0 1 1 1 -0 -0 0 0 -0 -1 -1 -1 -1 -1 -3 -7
2 0 -1 -1 0 0 0 -0 -2 -0 -1 -2 -2 -0 1 2 2 1 1 2 1 1 -0 -0 -0 -0 0 -0 -1 -1 -0 -0 -1 -0 -1 -1 -1 -2 -2 -2 -4 -11 -20 -22
3 2 3 -1 -0 -2 -1 3 -0 -1 -1 -2 1 3 1 1 2 2 2 1 1 0 -0 -0 -0 -0 -1 -1 -1 -1 -1 -1 -1 -1 -1 -2 -2 -4 -13 -16 -19 -21 -24 -27
3 3 1 -3 -3 0 4 1 0 -1 -1 -2 2 -0 -1 2 2 2 1 2 1 -0 -0 -0 -0 -1 -1 -1 -1 -1 -1 -1 -1 -2 -2 -4 -12 -16 -19 -22 -23 -24 -27 -29
3 3 2 -3 2 3 1 2 1 0 -1 -1 -0 2 2 3 2 1 1 1 0 -0 -0 -1 -1 -1 -1 -1 -1 -1 -1 -2 -2 -4 -9 -15 -16 -19 -22 -22 -24 -26 -27 -28
0 0 -3 -1 0 1 2 2 2 2 1 1 2 2 1 1 1 1 1 1 0 -0 -0 -1 -1 -1 -0 -1 -1 -1 -1 -2 -6 -12 -15 -16 -18 -20 -21 -22 -25 -27 -29 -30
-1 -2 -2 -2 -0 1 2 2 2 1 1 1 1 1 1 1 1 1 1 1 1 -0 -0 -1 -1 -1 -1 -1 -1 -1 -2 -8 -13 -15 -16 -16 -18 -20 -21 -22 -25 -29 -31 -31
-1 -2 -1 -1 -2 0 2 2 2 1 2 2 2 2 2 2 1 1 1 1 2 1 -0 -1 -1 -1 -1 -1 -1 -3 -8 -13 -15 -16 -16 -16 -18 -21 -22 -23 -25 -30 -32 -31
1 -2 -2 -2 -2 -1 3 3 3 2 2 2 2 2 1 1 1 2 2 1 1 2 0 -0 -1 -1 -2 -2 -2 -4 -9 -13 -15 -16 -16 -16 -18 -21 -22 -22 -23 -27 -31 -31
-1 -1 -1 -0 -0 -1 2 3 2 2 1 1 1 1 0 1 1 1 3 3 1 1 2 0 -1 -1 -2 -4 -4 -6 -9 -11 -14 -16 -16 -16 -16 -19 -21 -22 -23 -24 -30 -31
-1 0 1 1 1 2 2 2 2 1 1 0 -0 -0 -0 -0 0 1 1 1 2 2 2 1 0 -1 -1 -2 -4 -5 -7 -9 -11 -14 -16 -16 -16 -16 -20 -22 -23 -23 -27 -30
2 1 0 1 2 2 1 1 1 1 0 -0 -0 -0 0 0 -0 0 1 1 1 2 2 2 1 1 -0 -1 -2 -4 -5 -7 -9 -11 -14 -16 -16 -16 -17 -21 -23 -23 -25 -29
1 1 1 1 1 1 1 1 0 0 0 -0 0 0 0 1 1 -0 0 0 1 1 1 2 2 2 1 0 -1 -2 -4 -5 -7 -9 -11 -14 -16 -16 -16 -19 -22 -23 -23 -28
1 1 1 1 1 1 0 0 -0 -0 1 1 1 1 1 1 1 1 -0 -0 -0 0 1 1 1 1 1 1 1 -1 -3 -4 -6 -8 -9 -10 -14 -16 -16 -17 -21 -22 -23 -27
1 2 1 0 0 0 -0 0 1 1 1 1 -0 -1 -1 -1 0 1 0 -0 -0 -1 -0 -0 0 0 0 0 1 1 -0 -1 -4 -6 -5 -7 -11 -15 -16 -16 -19 -21 -22 -25
-0 -0 0 -0 1 1 1 1 1 1 1 1 1 -0 -0 0 0 1 0 -0 -1 -1 -1 -1 -1 -1 -1 -1 -0 -0 -0 -1 -4 -3 -3 -4 -7 -12 -16 -16 -18 -20 -22 -24
0 1 0 -0 0 0 -0 -0 -1 -1 -0 0 0 -0 0 0 0 -0 -0 -0 -1 -1 -1 0 0 -1 -1 -1 -1 -1 -1 -2 -2 -2 -2 -3 -4 -5 -15 -15 -17 -20 -21 -24
-0 -3 -2 -0 -1 -2 -3 -6 -8 -7 -6 -3 -1 -0 -0 -1 -2 -1 -1 -1 -1 -2 -2 -2 -1 -1 -3 -4 -3 -2 -2 -3 -3 -3 -3 -3 -3 -4 -12 -15 -16 -19 -21 -24
-2 -4 -0 -4 -11 -11 -11 -13 -14 -12 -10 -8 -6 -5 -3 -1 -0 -1 -1 -0 -1 -1 -1 -1 -1 -2 -2 -3 -3 -2 -2 -3 -3 -4 -4 -4 -4 -5 -7 -14 -16 -19 -21 -24
-1 -1 -1 -10 -15 -16 -18 -20 -19 -15 -12 -11 -9 -8 -7 -6 -5 -3 -1 -1 -1 -1 -1 -1 -1 -2 -2 -3 -3 -3 -4 -4 -4 -4 -4 -4 -4 -5 -7 -14 -16 -17 -20 -24
-3 -0 -0 -4 -19 -21 -22 -22 -21 -19 -16 -15 -13 -13 -13 -10 -7 -6 -5 -3 -2 -1 -1 -1 -2 -2 -3 -3 -3 -4 -4 -4 -5 -5 -4 -5 -5 -4 -6 -9 -15 -16 -19 -24
-1 -1 -2 -15 -19 -21 -22 -21 -20 -19 -18 -17 -16 -14 -14 -13 -12 -11 -8 -5 -4 -3 -2 -2 -2 -3 -3 -3 -4 -4 -4 -4 -4 -4 -5 -5 -4 -4 -6 -10 -10 -16 -17 -24
-7 -1 -5 -12 -15 -20 -22 -22 -20 -19 -19 -19 -19 -18 -17 -15 -13 -12 -11 -11 -8 -5 -3 -3 -3 -3 -3 -4 -4 -4 -4 -4 -5 -5 -5 -5 -5 -5 -6 -12 -15 -14 -16 -22
-4 -4 -7 -8 -9 -17 -22 -23 -22 -21 -21 -21 -21 -19 -19 -18 -16 -15 -13 -11 -10 -7 -6 -5 -4 -4 -4 -4 -4 -4 -5 -5 -5 -5 -5 -5 -5 -5 -9 -14 -15 -14 -19 -15
Wind_Speed
3 3 3 3 6 12 9 11 8 10 8 6 10 11 19 20 17 20 22 21 18 15 14 14 15 14 14 13 12 12 12 11 10 10 10 8 7 7 4 3 1 1 2 3
2 1 0 2 6 8 14 9 9 3 6 6 10 12 16 19 19 21 24 22 19 15 14 13 14 14 14 13 12 13 14 12 10 9 7 4 2 3 3 3 4 5 6 8
4 3 3 7 12 13 7 8 11 10 14 2 4 12 19 18 24 24 23 21 18 15 13 12 13 14 14 13 13 12 11 10 7 5 4 5 6 7 8 9 8 9 9 10
2 2 1 6 2 6 15 8 10 4 6 8 9 15 21 22 23 22 19 18 16 15 13 12 13 14 14 14 14 10 9 7 5 5 7 9 10 10 10 10 10 11 10 10
3 3 7 4 3 5 6 7 15 15 8 12 10 10 7 15 16 16 16 15 13 12 11 11 12 12 13 14 11 9 9 8 8 9 11 12 11 11 11 10 9 8 9 9
2 1 4 3 3 3 3 5 2 15 8 7 15 5 3 15 14 14 14 13 12 12 11 11 11 12 12 11 9 9 11 11 11 12 13 14 11 10 9 9 7 7 6 6
5 2 6 7 5 2 2 4 5 8 18 16 5 6 7 12 13 12 12 12 12 11 10 10 10 9 10 11 11 11 12 14 14 14 13 11 9 8 7 6 4 3 4 6
4 2 7 5 3 4 4 2 2 5 8 14 13 9 9 11 12 13 13 14 12 11 11 10 9 10 12 13 12 13 14 14 14 12 12 10 8 6 4 3 1 2 3 5
7 5 5 7 4 7 7 5 5 5 8 10 11 10 9 9 11 13 13 13 13 12 11 11 11 11 13 15 16 14 14 13 13 12 10 8 6 5 3 2 1 3 4 6
2 4 6 8 11 10 11 8 6 6 9 8 7 6 6 7 9 12 14 15 13 14 14 12 12 13 13 16 16 16 15 13 12 10 9 8 6 5 4 4 4 5 6 7
4 6 7 9 11 13 15 11 8 8 9 8 8 8 8 9 8 8 12 16 16 15 14 13 13 13 15 17 16 16 15 14 13 12 10 9 8 7 6 6 6 6 7 9
5 11 9 11 9 13 20 17 12 11 9 8 8 8 9 10 11 11 13 14 18 18 17 16 15 14 14 17 17 17 16 16 15 14 12 11 10 9 8 7 7 8 8 9
9 10 10 8 9 10 18 16 13 10 9 8 7 8 10 11 12 14 16 17 18 19 18 19 17 16 15 16 18 18 16 16 16 16 15 13 12 10 10 9 9 10 10 11
21 12 7 10 5 9 13 13 10 9 9 9 10 11 13 14 14 15 18 18 16 16 19 20 20 20 17 19 20 20 18 17 18 17 16 15 13 12 12 11 11 11 12 12
11 9 6 9 10 11 9 8 8 9 10 11 13 14 14 15 16 16 15 16 17 17 19 21 23 23 21 21 21 21 21 20 19 18 18 17 16 15 14 13 13 13 13 13
10 11 7 9 10 9 8 8 9 10 12 13 15 16 16 16 16 16 16 16 19 21 19 21 23 23 22 23 24 24 24 22 21 21 20 20 18 17 15 15 14 14 14 14
13 9 9 10 10 9 9 8 9 11 13 14 15 16 17 17 17 17 16 16 17 18 17 18 19 19 21 24 26 26 25 24 25 24 22 20 19 18 16 16 16 15 15 15
12 9 9 8 8 7 7 8 9 10 11 13 14 15 15 16 17 16 15 15 17 18 18 17 17 18 20 23 26 27 27 27 27 26 22 22 20 18 18 17 17 16 16 15
3 4 5 4 4 5 5 5 5 6 7 9 10 10 10 11 12 13 13 15 15 15 13 14 16 18 20 22 26 28 29 28 29 31 25 23 21 20 19 18 17 17 16 16
4 4 3 3 3 3 2 1 3 5 7 7 7 7 6 6 7 8 10 12 12 14 15 16 18 19 21 21 24 27 28 28 29 29 28 27 24 19 19 18 18 18 17 17
5 6 6 6 4 2 3 4 5 7 7 8 7 7 7 6 6 7 9 10 11 13 14 15 17 18 17 18 22 24 27 28 30 27 25 27 25 19 18 19 18 17 17 17
6 6 3 3 3 3 5 7 8 8 8 8 8 8 8 8 8 8 8 9 10 11 12 13 15 16 15 17 21 22 23 23 23 22 23 24 25 23 16 18 17 16 16 17
4 3 3 3 5 6 7 8 8 7 7 7 7 7 8 8 8 8 8 9 10 11 10 11 12 13 13 15 17 18 18 18 18 20 22 24 25 21 14 16 17 17 17 17
4 3 0 4 8 8 8 7 7 6 7 7 8 8 8 8 8 8 10 11 11 11 10 9 10 10 11 13 13 13 14 15 17 19 19 20 23 22 18 17 17 16 17 18
8 6 5 5 7 8 7 7 7 6 6 6 7 7 8 9 9 9 9 10 10 9 8 8 7 7 9 10 10 11 12 13 14 15 16 19 22 21 18 17 17 18 18 18
11 11 9 8 8 9 8 8 7 6 6 6 7 8 9 9 9 9 10 10 10 9 7 8 7 6 6 5 7 8 9 10 11 12 14 17 19 19 16 17 18 18 18 18
14 13 12 11 10 10 10 9 8 8 8 8 8 9 9 9 10 10 10 10 10 9 8 7 8 8 7 7 7 7 8 9 11 13 15 17 19 19 17 18 19 19 19 20
Wind_Direction
254 137 138 215 191 181 194 214 203 248 219 224 210 191 192 189 198 195 201 207 217 229 237 242 246 252 258 266 269 263 263 271 278 285 289 287 279 282 216 210 216 300 16 52
302 254 61 291 247 220 221 217 240 200 266 228 237 225 202 206 196 202 205 212 220 228 236 244 249 249 255 264 266 264 263 264 270 275 274 253 214 199 155 140 103 85 86 75
264 18 0 299 229 211 212 205 215 210 227 222 231 194 205 210 203 206 212 218 224 234 242 249 246 251 256 260 263 262 259 257 260 248 213 182 153 139 125 112 98 90 82 83
196 27 305 240 212 209 219 231 211 230 189 212 207 213 216 209 209 210 218 223 227 234 242 244 246 251 253 254 260 252 239 232 211 180 164 147 138 129 117 105 102 96 89 75
150 196 286 276 196 168 174 265 217 220 202 219 229 192 188 193 207 228 231 227 235 241 242 242 244 249 254 256 247 230 209 188 170 158 149 138 132 127 117 112 101 92 81 68
161 169 246 254 334 214 148 286 311 209 188 178 160 165 240 203 212 216 217 225 230 232 233 237 244 253 241 218 205 203 184 166 159 151 143 137 139 128 118 109 98 80 60 44
230 242 281 255 253 155 100 255 328 213 198 184 175 194 217 198 201 209 215 218 222 224 232 237 234 215 188 183 180 179 167 156 150 146 145 145 143 137 127 115 104 83 47 27
187 190 269 217 105 175 235 342 97 121 178 183 202 183 177 186 202 213 217 215 217 220 223 222 209 194 182 181 169 166 159 157 157 156 152 155 154 147 142 141 119 36 11 1
182 212 242 214 230 249 238 210 192 178 160 174 172 180 186 202 215 220 221 220 217 219 222 215 204 193 186 177 166 168 168 171 170 167 170 176 177 179 202 234 290 329 339 342
89 265 240 248 240 237 211 226 223 210 179 175 172 186 199 219 226 229 225 224 225 224 221 221 205 195 188 184 182 182 181 182 184 186 192 199 204 214 240 268 291 306 316 327
251 285 280 265 245 236 216 212 208 199 201 204 212 219 230 232 236 255 246 234 231 231 230 229 215 204 199 195 196 190 189 194 200 205 210 217 221 230 244 262 278 292 306 318
225 231 219 252 252 243 220 217 213 207 212 228 243 251 254 261 261 253 266 251 239 235 233 231 225 216 212 209 206 200 202 206 210 216 220 225 231 239 247 260 277 291 300 311
245 243 228 255 262 252 218 211 208 216 228 231 246 266 273 273 266 261 253 262 253 248 244 236 231 226 220 216 214 211 214 216 218 224 228 232 237 243 251 265 281 292 300 306
246 225 189 204 216 200 200 201 210 222 237 253 264 272 278 277 270 261 256 256 255 250 245 242 237 233 226 223 219 220 222 223 228 233 236 240 244 248 254 263 276 287 294 302
205 197 261 221 207 198 202 214 230 246 260 269 275 279 281 278 272 265 260 253 251 250 244 242 242 238 233 230 230 228 228 230 233 235 238 242 244 250 256 263 272 280 288 295
240 270 218 200 198 203 218 240 261 271 277 278 279 280 279 278 273 263 255 249 243 243 245 245 247 246 239 237 236 234 233 233 236 237 239 242 245 250 255 261 268 276 285 291
217 200 216 216 218 225 237 254 273 284 287 287 286 284 279 275 269 263 255 252 253 254 253 252 255 255 248 240 239 239 238 237 236 237 238 244 247 251 255 259 266 273 282 287
229 231 236 238 224 236 258 273 281 287 291 293 293 290 284 276 270 263 253 250 251 251 249 250 250 249 248 243 242 243 239 237 238 237 238 244 247 251 253 258 264 271 279 287
187 195 203 218 238 252 257 265 286 296 300 305 311 305 289 281 276 264 252 252 256 260 259 251 250 250 251 249 244 243 242 241 233 242 232 231 237 247 253 258 264 271 278 286
165 161 164 153 131 137 141 73 334 313 314 320 326 323 315 296 280 268 260 260 260 260 258 257 248 249 253 250 244 241 242 242 243 241 241 236 230 228 253 257 262 269 277 284
141 120 119 109 93 47 332 327 332 324 319 321 320 319 320 319 311 298 284 275 267 266 265 262 259 255 253 249 246 243 240 237 240 246 249 243 233 219 243 256 263 269 277 286
151 138 166 73 312 308 314 325 334 326 326 327 327 325 317 308 305 300 293 289 282 279 276 274 266 256 249 239 243 245 248 250 249 247 250 244 231 222 227 255 262 270 278 286
191 213 161 352 333 328 326 325 326 327 334 338 338 338 337 331 323 309 289 288 292 292 289 282 275 269 258 247 248 253 252 250 245 250 253 244 236 224 218 252 262 270 277 286
280 302 280 45 328 325 324 326 328 330 333 335 339 343 345 341 333 328 322 312 302 294 295 292 284 275 256 250 253 249 244 245 250 253 247 240 232 229 224 240 260 270 278 283
266 305 316 312 309 313 315 316 317 318 321 326 329 332 336 338 338 334 326 324 318 310 300 298 291 272 267 265 254 249 248 248 247 241 237 237 238 239 229 242 259 267 277 283
280 304 292 296 306 309 306 304 302 302 304 314 320 322 324 325 327 327 329 329 326 322 306 302 297 282 271 259 250 249 246 241 240 241 242 244 242 243 242 251 257 267 278 281
268 280 280 283 291 294 291 289 288 290 296 303 308 311 315 318 319 321 321 324 328 324 315 302 289 283 270 255 250 249 248 247 246 244 246 245 247 247 247 257 261 270 274 282
Height
1482 1479 1482 1481 1479 1482 1488 1480 1487 1473 1479 1471 1471 1469 1471 1474 1477 1479 1482 1484 1486 1487 1487 1487 1487 1487 1487 1488 1487 1487 1486 1486 1485 1484 1484 1483 1483 1482 1482 1482 1481 1480 1479 1478
1480 1478 1480 1487 1480 1478 1475 1477 1479 1478 1476 1466 1466 1469 1470 1471 1474 1476 1478 1481 1483 1483 1483 1483 1483 1484 1484 1485 1484 1484 1483 1483 1483 1482 1482 1481 1482 1481 1481 1481 1481 1480 1479 1478
1501 1485 1484 1487 1472 1472 1470 1469 1467 1475 1458 1463 1464 1464 1466 1468 1470 1472 1475 1477 1478 1479 1480 1480 1480 1481 1481 1482 1482 1481 1480 1481 1481 1480 1480 1480 1481 1481 1482 1481 1481 1480 1482 1480
1506 1494 1503 1464 1457 1459 1460 1458 1461 1459 1459 1458 1459 1461 1463 1465 1467 1470 1472 1473 1475 1476 1476 1477 1477 1478 1478 1478 1479 1478 1479 1479 1479 1479 1480 1480 1482 1482 1482 1481 1483 1481 1482 1483
1496 1505 1477 1455 1456 1459 1461 1454 1450 1452 1454 1455 1458 1460 1461 1463 1466 1468 1469 1470 1472 1473 1473 1474 1475 1475 1475 1476 1476 1477 1477 1478 1478 1480 1480 1481 1483 1483 1483 1483 1484 1483 1483 1483
1489 1495 1486 1459 1453 1453 1454 1460 1444 1445 1449 1452 1456 1463 1461 1461 1463 1465 1467 1468 1469 1470 1471 1472 1472 1472 1473 1474 1474 1475 1476 1476 1478 1479 1481 1482 1485 1484 1484 1484 1484 1484 1485 1484
1481 1479 1471 1455 1452 1453 1461 1457 1445 1444 1446 1450 1455 1456 1457 1458 1461 1463 1465 1466 1467 1468 1469 1470 1470 1470 1471 1472 1472 1474 1476 1476 1479 1480 1482 1484 1485 1485 1484 1485 1485 1486 1485 1484
1473 1481 1482 1451 1453 1457 1452 1447 1446 1445 1446 1449 1452 1454 1456 1457 1459 1461 1462 1463 1465 1466 1467 1468 1468 1469 1469 1471 1471 1474 1475 1477 1480 1481 1482 1484 1485 1484 1485 1486 1486 1485 1485 1484
1467 1464 1451 1450 1449 1448 1448 1448 1448 1448 1448 1450 1452 1454 1455 1457 1458 1460 1461 1463 1463 1464 1465 1466 1467 1467 1468 1469 1471 1473 1476 1478 1480 1481 1483 1484 1484 1484 1486 1486 1486 1485 1484 1482
1457 1450 1449 1448 1448 1447 1447 1448 1448 1448 1449 1451 1452 1453 1455 1456 1457 1458 1459 1460 1461 1462 1463 1464 1464 1465 1467 1469 1470 1472 1475 1477 1479 1481 1482 1483 1484 1484 1485 1485 1484 1483 1482 1481
1453 1449 1448 1446 1445 1445 1446 1447 1448 1449 1450 1451 1452 1453 1454 1454 1455 1456 1457 1457 1458 1459 1460 1462 1462 1463 1465 1467 1468 1470 1473 1475 1478 1479 1481 1482 1483 1483 1483 1483 1483 1481 1480 1479
1449 1441 1442 1441 1442 1442 1443 1444 1446 1447 1449 1451 1452 1452 1452 1453 1453 1453 1454 1455 1455 1456 1457 1459 1460 1461 1463 1465 1467 1469 1470 1473 1475 1477 1479 1480 1480 1481 1481 1481 1480 1479 1478 1477
1439 1439 1439 1439 1439 1439 1440 1443 1445 1446 1448 1449 1450 1450 1450 1450 1450 1451 1451 1451 1453 1453 1455 1456 1457 1459 1460 1462 1464 1466 1468 1471 1472 1474 1476 1477 1477 1478 1478 1478 1477 1476 1475 1474
1436 1437 1437 1437 1437 1438 1440 1442 1443 1444 1446 1446 1446 1447 1447 1446 1446 1446 1446 1448 1449 1449 1451 1452 1454 1455 1457 1459 1460 1463 1465 1468 1469 1471 1472 1473 1474 1475 1475 1474 1474 1473 1472 1471
1436 1434 1436 1436 1436 1438 1439 1441 1441 1442 1442 1443 1443 1443 1442 1442 1441 1441 1442 1443 1444 1445 1446 1447 1448 1450 1453 1455 1457 1459 1461 1463 1465 1467 1468 1470 1470 1471 1471 1471 1470 1470 1469 1468
1435 1436 1435 1435 1435 1436 1437 1439 1439 1439 1439 1439 1439 1439 1438 1437 1437 1437 1437 1438 1438 1439 1441 1442 1443 1445 1448 1450 1452 1454 1456 1459 1461 1462 1464 1465 1466 1466 1466 1466 1466 1466 1465 1464
1432 1434 1434 1433 1434 1434 1435 1436 1436 1436 1436 1435 1434 1434 1433 1433 1432 1432 1433 1433 1434 1435 1437 1438 1439 1441 1443 1444 1446 1448 1451 1453 1455 1456 1458 1460 1461 1461 1462 1462 1462 1461 1461 1459
1430 1430 1431 1432 1433 1433 1433 1433 1433 1433 1432 1431 1430 1429 1428 1427 1427 1427 1428 1429 1429 1430 1431 1433 1434 1435 1436 1438 1439 1441 1443 1445 1448 1450 1453 1454 1456 1456 1457 1457 1456 1456 1455 1454
1430 1430 1429 1430 1431 1431 1431 1431 1431 1430 1430 1428 1427 1425 1424 1423 1422 1423 1423 1424 1425 1425 1427 1428 1429 1429 1430 1431 1433 1434 1436 1438 1440 1442 1444 1446 1449 1451 1451 1451 1451 1451 1450 1449
1429 1429 1429 1429 1430 1430 1430 1429 1429 1429 1428 1426 1424 1423 1421 1420 1420 1420 1420 1421 1421 1422 1422 1422 1422 1423 1424 1425 1425 1427 1429 1431 1433 1435 1436 1439 1441 1443 1445 1446 1446 1445 1445 1443
1429 1430 1430 1430 1431 1431 1430 1429 1428 1427 1426 1425 1423 1422 1420 1419 1418 1418 1417 1417 1417 1417 1417 1417 1417 1417 1417 1419 1419 1421 1422 1424 1426 1429 1432 1433 1435 1436 1439 1440 1440 1440 1440 1438
1430 1431 1431 1432 1431 1430 1429 1427 1426 1425 1424 1423 1421 1420 1419 1418 1417 1416 1416 1416 1415 1414 1413 1412 1412 1411 1411 1412 1412 1414 1417 1419 1421 1424 1426 1427 1429 1429 1432 1435 1435 1435 1434 1433
1430 1430 1429 1430 1429 1428 1427 1426 1425 1424 1423 1421 1420 1419 1418 1416 1415 1414 1414 1413 1412 1411 1410 1408 1407 1406 1406 1407 1408 1409 1412 1414 1416 1418 1419 1421 1423 1425 1426 1429 1429 1429 1429 1428
1430 1430 1428 1428 1428 1427 1426 1425 1424 1423 1422 1421 1420 1419 1417 1416 1414 1413 1412 1410 1409 1408 1406 1405 1404 1403 1403 1403 1404 1405 1407 1408 1410 1412 1413 1416 1418 1420 1421 1423 1423 1424 1423 1422
1429 1429 1429 1428 1427 1426 1425 1424 1423 1422 1422 1421 1419 1418 1417 1415 1414 1412 1410 1408 1406 1405 1403 1402 1401 1400 1400 1400 1401 1402 1403 1404 1405 1407 1409 1411 1413 1415 1416 1417 1418 1418 1417 1416
1428 1427 1426 1426 1425 1424 1424 1423 1422 1421 1421 1419 1418 1417 1416 1414 1412 1411 1409 1407 1405 1403 1401 1400 1399 1398 1398 1398 1398 1399 1400 1401 1402 1403 1405 1407 1409 1410 1411 1412 1412 1412 1411 1410
1425 1424 1424 1423 1423 1422 1421 1421 1420 1419 1418 1418 1417 1415 1414 1413 1411 1409 1407 1405 1403 1401 1399 1398 1397 1396 1396 1396 1396 1397 1398 1398 1399 1400 1402 1403 1404 1405 1406 1406 1406 1406 1406 1404